Location: Karaa?a�
(36.7158°N, 30.4165°E)
Time: 08:50:10
(UTC+00:00)

CZ-2C R/B - Pass Details

Date: 09 April 2020
Orbit: 639 x 705 km, 98.4° (Epoch: 31 May)

Event Time Altitude Azimuth Distance (km) Brightness Sun altitude
Rises 17:13:04 0° 23° (NNE) 3,062 7.1 -9.6°
Reaches altitude 10° 17:15:32 10° 34° (NNE) 2,131 6.2 -10.1°
Maximum altitude 17:19:42 32° 97° (E) 1,150 4.4 -10.9°
Drops below altitude 10° 17:23:47 10° 161° (SSE) 2,080 5.9 -11.7°
Sets 17:26:10 0° 171° (S) 2,977 6.8 -12.1°
